Regional Weather Roundup
Issued by NWS Newport/Morehead, NC

Current Version | Previous Version | Text Only | Print | Product List | Glossary On
Versions: 1 2 3 4 5 6 7 8 9 10 11 12 13 14 15 16 17 18 19 20 21 22 23 24 25 26 27 28 29 30 31 32 33 34 35 36 37 38 39 40 41 42 43 44 45 46 47 48 49 50
000
ASUS42 KMHX 160713
RWRMHX
WEATHER ROUNDUP FOR EASTERN NORTH CAROLINA
NATIONAL WEATHER SERVICE NEWPORT/MOREHEAD CITY NC
200 AM EST MON JAN 16 2017

NOTE: "FAIR" INDICATES FEW OR NO CLOUDS BELOW 12,000 FEET
WITH NO SIGNIFICANT WEATHER AND/OR OBSTRUCTIONS TO VISIBILITY

NCZ015>017-031-032-045>047-102-103-160800-
NORTH COAST

CITY           SKY/WX    TMP DP  RH WIND       PRES   REMARKS
EDENTON        CLOUDY    44  36  75 CALM      30.41S
ELIZABETH CITY CLOUDY    42  36  79 N6        30.42S
KITTY HAWK     NOT AVBL
MANTEO         CLOUDY    44  37  75 NE9       30.40F

$$

NCZ045>047-081-094-103-104-160800-
CENTRAL COAST

CITY           SKY/WX    TMP DP  RH WIND       PRES   REMARKS
FRISCO         CLOUDY    47  40  76 NE8       30.38R

$$

NCZ095-097-098-100-101-160800-
SOUTHERN COAST

CITY           SKY/WX    TMP DP  RH WIND       PRES   REMARKS
BEAUFORT       CLOUDY    44  39  82 NE8       30.37R
CEDAR ISLAND   NOT AVBL
JACKSONVILLE   CLOUDY    46  41  82 NE9       30.36S
PINEY ISLAND   LGT RAIN N/A N/A N/A N12       30.37S
WILMINGTON     CLOUDY    49  44  83 NE5       30.33F


$$

NCZ011>013-027>030-043-044-078>080-089-090>093-098-160800-
COASTAL PLAIN

CITY           SKY/WX    TMP DP  RH WIND       PRES   REMARKS
AHOSKIE          N/A     40  25  55 NE3       30.41S
CLINTON        CLOUDY    49  42  78 E3        30.34F
ELIZABETHTOWN  CLOUDY    49  43  79 E5        30.33F
GOLDSBORO      MOCLDY    46  45  93 E8        30.35S
GREENVILLE     CLOUDY    43  43 100 CALM      30.39R
HAVELOCK       CLOUDY    44  38  79 NE12      30.38S
KENANSVILLE    CLOUDY    46  41  81 E6        30.36S
KINSTON        CLOUDY    45  41  86 E7        30.38S
NEW BERN       CLOUDY    43  40  89 NE7       30.39S
RICHLANDS      CLOUDY    45  41  86 NE9       30.36S
ROCKY MOUNT    CLOUDY    45  39  79 NE6       30.38S
WASHINGTON     MOCLDY    41  37  86 NE6       30.39S
WHITEVILLE     CLOUDY    50  46  84 NE3       30.33R

$$

AMZ130-135-150-152-154-156-158-170-250-252-270-ANZ085-086-088-633-658-670-160800-
MARINE OBSERVATIONS

STATION/POSITION TIME  TEMP    WIND        PRES    WAVE   SWELL
                       AIR SEA DIR/SP/G            HT/PER HT/PER
                 (UTC) (F)     (DEG/KT/KT) (MB)    (FT/S) (FT/S)
CHESAPEAKE LIGHT NOT AVBL
64 E VA BEACH    0650   49 62   20/ 12/ 14 1029.2    4/ 8   3/ 8
DUCK             0648           10/ 10/ 13 1029.1
2 E DUCK         0630      44                N/A     3/11   2/11
OREGON INLET     0642          360/  7/ 12 1029.2
13E OREGON INLT  NOT AVBL
HATTERAS CG      0642           10/ 15/ 17 1028.3
DIAMOND BUOY     0650   53 73   20/ 17/ 19 1027.7    4/ 8   2/ 8
CAPE LOOKOUT     0600   45      10/ 12/ 15 1027.4
BEAUFORT LAB     0642           10/ 12/ 14 1027.1
30 SE NEW RVR IN 0608   52 65   40/ 16/ 21 1027.1
30 SE NEW RVR IN 0643      64                N/A     4/12   2/12
27 SE WRIGHTSVLE 0608   58 70   60/ 16/ 23 1026.0
5 SE WRIGHTSVLE  NOT AVBL
225 S CAPE HAT   0650   68 71   80/  8/ 10 1025.7    4/ 6   3/ 6
41 SE CHARLESTON 0550   69 71   90/  4/  6 1024.8    3/11   3/11

$$




USA.gov is the U.S. government's official web portal to all federal, state and local government web resources and services.